UAE30Y OMDB-CYYZ

Flight info

Callsign UAE30Y
Flight time N/A
Altitude 34000
Route ANVIX R401 GIDIS G783 VAVIM DCT ESROM M318 GOLGU M550 RIBOT DCT MIGMA DCT SITUK M321 KSA T503 SERPU/N0506F320 T503 BONIS/N0495F340 T503 OVANO L768 FIRAS R655 KTN/N0487F260 R655 LEBOR UR655 BALMA DCT VESAR UB545 MUT/N0485F360 UL619 MAKOL DCT KARIL DCT KEKED DCT KELEL DCT SUDOL DCT AGALU DCT ROVEK DCT BINKA DCT KOGIM DCT SONAL DCT RADIS DCT ZOL DCT GUNPA/M085F360 DCT 62N010W 62N020W/M085F380 61N030W 59N040W 57N050W/M085F400 DCT DORYY/N0494F400 DCT MOFAT DCT ROSVO IMEBA9
Aircraft A359/H-SDE2E3GHIJ3J4J5LM1ORWXY/LB1D1

Departure

Time 2026-04-22 20:36
Airport Dubai International Airport (OMDB)

Arrival

Time N/A
Airport Toronto Pearson International Airport (CYYZ)
Time Latitude Longitude Altitude Speed Heading
2026-04-22 20:00 25.24193 55.37251 22 ft 0 kts 31°
2026-04-22 20:24 25.24192 55.37250 27 ft 2 kts 31°
2026-04-22 20:24 25.24170 55.37235 27 ft 4 kts 31°
2026-04-22 20:24 25.24150 55.37222 25 ft 3 kts 31°
2026-04-22 20:25 25.24131 55.37205 25 ft 4 kts 59°
2026-04-22 20:25 25.24125 55.37179 22 ft 4 kts 105°
2026-04-22 20:25 25.24135 55.37154 25 ft 4 kts 122°
2026-04-22 20:25 25.24149 55.37129 25 ft 3 kts 122°
2026-04-22 20:26 25.24151 55.37126 25 ft 1 kts 122°
2026-04-22 20:29 25.24150 55.37128 30 ft 1 kts 121°
2026-04-22 20:29 25.24135 55.37154 27 ft 6 kts 121°
2026-04-22 20:29 25.24111 55.37199 27 ft 7 kts 121°
2026-04-22 20:29 25.24084 55.37247 27 ft 8 kts 122°
2026-04-22 20:30 25.24055 55.37298 27 ft 8 kts 122°
2026-04-22 20:30 25.24024 55.37354 27 ft 9 kts 122°
2026-04-22 20:30 25.23992 55.37411 27 ft 9 kts 121°
2026-04-22 20:30 25.23969 55.37477 27 ft 9 kts 102°
2026-04-22 20:31 25.23975 55.37547 26 ft 9 kts 69°
2026-04-22 20:31 25.24015 55.37605 27 ft 10 kts 39°
2026-04-22 20:31 25.24071 55.37645 27 ft 10 kts 32°
2026-04-22 20:31 25.24130 55.37685 27 ft 10 kts 31°
2026-04-22 20:32 25.24191 55.37726 27 ft 10 kts 31°
2026-04-22 20:32 25.24232 55.37754 27 ft 10 kts 32°
2026-04-22 20:32 25.24314 55.37811 28 ft 11 kts 32°
2026-04-22 20:32 25.24355 55.37840 28 ft 10 kts 33°
2026-04-22 20:33 25.24411 55.37882 29 ft 9 kts 34°
2026-04-22 20:33 25.24473 55.37929 31 ft 8 kts 34°
2026-04-22 20:33 25.24502 55.37951 31 ft 8 kts 34°
2026-04-22 20:33 25.24557 55.37993 30 ft 11 kts 34°
2026-04-22 20:34 25.24622 55.38041 29 ft 11 kts 33°
2026-04-22 20:34 25.24685 55.38083 31 ft 10 kts 31°
2026-04-22 20:34 25.24743 55.38101 32 ft 8 kts 352°
2026-04-22 20:34 25.24785 55.38063 32 ft 8 kts 306°
2026-04-22 20:35 25.24897 55.37862 32 ft 56 kts 301°
2026-04-22 20:35 25.25080 55.37533 33 ft 94 kts 301°
2026-04-22 20:35 25.25518 55.36744 30 ft 144 kts 301°
2026-04-22 20:35 25.26113 55.35669 147 ft 174 kts 301°
2026-04-22 20:36 25.26704 55.34552 792 ft 167 kts 301°
2026-04-22 20:36 25.27303 55.33408 1092 ft 183 kts 301°
2026-04-22 20:36 25.27961 55.32139 1342 ft 196 kts 301°
2026-04-22 20:36 25.28641 55.30783 1504 ft 206 kts 300°
2026-04-22 20:37 25.29103 55.29257 1692 ft 216 kts 274°
2026-04-22 20:37 25.28789 55.27612 1890 ft 225 kts 248°
2026-04-22 20:37 25.28133 55.26010 2164 ft 232 kts 245°
2026-04-22 20:37 25.27412 55.24359 2380 ft 242 kts 245°
2026-04-22 20:38 25.26689 55.22697 2777 ft 244 kts 245°
2026-04-22 20:38 25.25955 55.20993 3163 ft 247 kts 245°
2026-04-22 20:38 25.25225 55.19288 3634 ft 244 kts 245°
2026-04-22 20:38 25.24319 55.17711 4074 ft 243 kts 225°
2026-04-22 20:39 25.22870 55.16795 4455 ft 245 kts 192°
2026-04-22 20:39 25.21161 55.16714 4766 ft 250 kts 177°
2026-04-22 20:39 25.19441 55.17090 5108 ft 254 kts 159°
2026-04-22 20:39 25.18000 55.18236 5453 ft 262 kts 131°
2026-04-22 20:40 25.17015 55.19968 5661 ft 274 kts 119°
2026-04-22 20:40 25.16128 55.21884 5940 ft 282 kts 119°
2026-04-22 20:40 25.15239 55.23812 6323 ft 285 kts 119°
2026-04-22 20:40 25.14327 55.25756 6712 ft 287 kts 120°
2026-04-22 20:41 25.13395 55.27724 7136 ft 288 kts 120°
2026-04-22 20:41 25.12465 55.29679 7568 ft 290 kts 120°
2026-04-22 20:41 25.11524 55.31638 7986 ft 291 kts 121°
2026-04-22 20:41 25.10566 55.33631 8423 ft 293 kts 121°
2026-04-22 20:42 25.09682 55.35673 8864 ft 295 kts 117°
2026-04-22 20:42 25.08856 55.37732 9302 ft 297 kts 117°
2026-04-22 20:42 25.08014 55.39827 9750 ft 299 kts 117°
2026-04-22 20:42 25.07161 55.41927 10129 ft 301 kts 117°
2026-04-22 20:43 25.06319 55.44077 10379 ft 310 kts 115°
2026-04-22 20:43 25.05472 55.46306 10574 ft 321 kts 115°
2026-04-22 20:43 25.04592 55.48617 10742 ft 331 kts 115°
2026-04-22 20:43 25.03691 55.50969 10923 ft 342 kts 115°
2026-04-22 20:44 25.02744 55.53435 11101 ft 351 kts 115°
2026-04-22 20:44 25.01701 55.55886 11272 ft 360 kts 121°
2026-04-22 20:44 25.00443 55.58300 11450 ft 369 kts 123°
2026-04-22 20:44 24.99105 55.60768 11611 ft 378 kts 123°
2026-04-22 20:45 24.97751 55.63259 11769 ft 386 kts 123°
2026-04-22 20:45 24.96349 55.65846 11942 ft 394 kts 122°
2026-04-22 20:45 24.94942 55.68441 12113 ft 401 kts 122°
2026-04-22 20:45 24.93397 55.71036 12377 ft 404 kts 127°
2026-04-22 20:46 24.90064 55.76084 13009 ft 409 kts 128°
2026-04-22 20:46 24.88388 55.78605 13334 ft 412 kts 128°
2026-04-22 20:46 24.86683 55.81172 13692 ft 413 kts 128°
2026-04-22 20:47 24.84996 55.83710 13990 ft 415 kts 127°
2026-04-22 20:47 24.83278 55.86293 14279 ft 417 kts 127°
2026-04-22 20:47 24.81550 55.88845 14546 ft 419 kts 128°
2026-04-22 20:47 24.79596 55.91223 14828 ft 419 kts 141°
2026-04-22 20:48 24.77124 55.92910 15133 ft 418 kts 159°
2026-04-22 20:48 24.74311 55.93663 15414 ft 417 kts 175°
2026-04-22 20:48 24.71447 55.93849 15697 ft 418 kts 181°
2026-04-22 20:48 24.68515 55.93815 15991 ft 420 kts 184°
2026-04-22 20:49 24.65578 55.93685 16276 ft 422 kts 185°
2026-04-22 20:49 24.62661 55.93331 16572 ft 421 kts 193°
2026-04-22 20:49 24.59898 55.92384 16779 ft 422 kts 206°
2026-04-22 20:49 24.57371 55.90737 17056 ft 421 kts 217°
2026-04-22 20:50 24.55046 55.88773 17357 ft 422 kts 221°
2026-04-22 20:50 24.52810 55.86671 17646 ft 423 kts 223°
2026-04-22 20:50 24.50612 55.84505 17938 ft 424 kts 224°
2026-04-22 20:50 24.48447 55.82347 18206 ft 426 kts 224°
2026-04-22 20:51 24.46245 55.80163 18479 ft 427 kts 224°
2026-04-22 20:51 24.44021 55.77982 18733 ft 428 kts 224°
2026-04-22 20:51 24.41801 55.75826 19046 ft 427 kts 223°
2026-04-22 20:51 24.39562 55.73667 19281 ft 429 kts 223°
2026-04-22 20:52 24.37323 55.71516 19498 ft 430 kts 223°
2026-04-22 20:52 24.35050 55.69343 19735 ft 432 kts 223°
2026-04-22 20:52 24.32803 55.67192 19977 ft 433 kts 223°
2026-04-22 20:52 24.30514 55.64998 20209 ft 434 kts 223°
2026-04-22 20:53 24.28369 55.62709 20442 ft 434 kts 229°
2026-04-22 20:53 24.26487 55.60088 20633 ft 434 kts 238°
2026-04-22 20:53 24.25034 55.57217 20846 ft 434 kts 247°
2026-04-22 20:53 24.23883 55.54169 21073 ft 435 kts 250°
2026-04-22 20:54 24.22843 55.51027 21303 ft 436 kts 251°
2026-04-22 20:54 24.21878 55.47900 21522 ft 437 kts 252°
2026-04-22 20:54 24.20918 55.44709 21741 ft 439 kts 252°
2026-04-22 20:54 24.19967 55.41556 21956 ft 440 kts 252°
2026-04-22 20:55 24.18991 55.38352 22170 ft 441 kts 252°
2026-04-22 20:55 24.18011 55.35178 22379 ft 443 kts 251°
2026-04-22 20:55 24.17009 55.31962 22590 ft 444 kts 251°
2026-04-22 20:55 24.16013 55.28783 22796 ft 445 kts 251°
2026-04-22 20:56 24.14997 55.25551 22982 ft 447 kts 251°
2026-04-22 20:56 24.13993 55.22362 23189 ft 448 kts 251°
2026-04-22 20:56 24.12966 55.19104 23370 ft 449 kts 251°
2026-04-22 20:56 24.11955 55.15897 23557 ft 450 kts 251°
2026-04-22 20:57 24.10924 55.12627 23718 ft 451 kts 251°
2026-04-22 20:57 24.09906 55.09400 23893 ft 452 kts 251°
2026-04-22 20:57 24.08878 55.06143 24062 ft 453 kts 251°
2026-04-22 20:57 24.07851 55.02894 24226 ft 454 kts 251°
2026-04-22 20:58 24.06812 54.99606 24406 ft 455 kts 252°
2026-04-22 20:58 24.05771 54.96318 24592 ft 455 kts 252°
2026-04-22 20:58 24.04738 54.93059 24769 ft 456 kts 252°
2026-04-22 20:58 24.03691 54.89756 24927 ft 458 kts 252°
2026-04-22 20:59 24.02647 54.86464 25104 ft 458 kts 252°
2026-04-22 20:59 24.01605 54.83183 25268 ft 459 kts 252°
2026-04-22 20:59 24.00563 54.79903 25444 ft 460 kts 252°
2026-04-22 20:59 23.99505 54.76577 25621 ft 461 kts 252°
2026-04-22 21:00 23.98442 54.73240 25786 ft 462 kts 252°
2026-04-22 21:00 23.97396 54.69956 25966 ft 463 kts 252°
2026-04-22 21:00 23.96328 54.66606 26140 ft 465 kts 252°
2026-04-22 21:00 23.95260 54.63258 26318 ft 466 kts 252°
2026-04-22 21:01 23.94195 54.59927 26496 ft 467 kts 252°
2026-04-22 21:01 23.93129 54.56592 26666 ft 468 kts 252°
2026-04-22 21:01 23.92047 54.53211 26847 ft 469 kts 252°
2026-04-22 21:01 23.90966 54.49835 27020 ft 470 kts 252°
2026-04-22 21:02 23.89888 54.46471 27199 ft 471 kts 252°
2026-04-22 21:02 23.88796 54.43069 27364 ft 472 kts 252°
2026-04-22 21:02 23.87717 54.39708 27536 ft 473 kts 252°
2026-04-22 21:02 23.86619 54.36291 27696 ft 474 kts 252°
2026-04-22 21:03 23.85530 54.32904 27856 ft 475 kts 252°
2026-04-22 21:03 23.84438 54.29512 28018 ft 476 kts 252°
2026-04-22 21:03 23.83331 54.26076 28183 ft 477 kts 252°
2026-04-22 21:03 23.82234 54.22673 28353 ft 478 kts 252°
2026-04-22 21:04 23.81120 54.19224 28543 ft 478 kts 252°
2026-04-22 21:04 23.80018 54.15811 28675 ft 479 kts 252°
2026-04-22 21:04 23.78916 54.12403 28819 ft 480 kts 252°
2026-04-22 21:04 23.77794 54.08935 28981 ft 481 kts 253°
2026-04-22 21:05 23.76686 54.05513 29208 ft 480 kts 253°
2026-04-22 21:05 23.75576 54.02090 29420 ft 479 kts 253°
2026-04-22 21:05 23.74460 53.98649 29656 ft 478 kts 253°
2026-04-22 21:05 23.73360 53.95262 29922 ft 476 kts 253°
2026-04-22 21:06 23.72247 53.91839 30154 ft 475 kts 253°
2026-04-22 21:06 23.71151 53.88470 30413 ft 472 kts 253°
2026-04-22 21:06 23.70047 53.85080 30692 ft 470 kts 253°
2026-04-22 21:06 23.68962 53.81748 30978 ft 467 kts 253°
2026-04-22 21:07 23.67882 53.78439 31258 ft 465 kts 253°
2026-04-22 21:07 23.66803 53.75132 31539 ft 462 kts 253°
2026-04-22 21:07 23.65719 53.71812 31876 ft 458 kts 253°
2026-04-22 21:07 23.64656 53.68563 32262 ft 453 kts 254°
2026-04-22 21:08 23.63608 53.65360 32560 ft 450 kts 254°
2026-04-22 21:08 23.62565 53.62173 32783 ft 449 kts 254°
2026-04-22 21:08 23.61511 53.58954 33003 ft 447 kts 254°
2026-04-22 21:08 23.60462 53.55752 33228 ft 446 kts 254°
2026-04-22 21:09 23.59424 53.52586 33467 ft 444 kts 254°
2026-04-22 21:09 23.58390 53.49438 33708 ft 442 kts 255°
2026-04-22 21:09 23.57357 53.46294 33812 ft 443 kts 255°
2026-04-22 21:09 23.56312 53.43109 33817 ft 447 kts 255°
2026-04-22 21:10 23.54209 53.36715 33812 ft 447 kts 254°
2026-04-22 21:10 23.52107 53.30344 33812 ft 447 kts 254°
2026-04-22 21:11 23.50003 53.23978 33811 ft 447 kts 255°
2026-04-22 21:11 23.47912 53.17661 33813 ft 444 kts 255°
2026-04-22 21:12 23.45814 53.11328 33810 ft 444 kts 255°
2026-04-22 21:12 23.43711 53.04987 33812 ft 444 kts 255°
2026-04-22 21:13 23.41622 52.98698 33812 ft 443 kts 256°
2026-04-22 21:13 23.38988 52.92571 33813 ft 448 kts 248°
2026-04-22 21:14 23.35999 52.86640 33812 ft 449 kts 247°
2026-04-22 21:14 23.32918 52.80678 33809 ft 449 kts 247°
2026-04-22 21:15 23.29857 52.74759 33808 ft 449 kts 247°
2026-04-22 21:15 23.26808 52.68848 33809 ft 449 kts 247°
2026-04-22 21:16 23.23757 52.62927 33807 ft 449 kts 247°
2026-04-22 21:16 23.20693 52.56988 33807 ft 449 kts 247°
2026-04-22 21:17 23.17879 52.50975 33804 ft 443 kts 255°
2026-04-22 21:17 23.15759 52.44700 33807 ft 442 kts 256°
2026-04-22 21:18 23.13771 52.38421 33807 ft 442 kts 256°
2026-04-22 21:18 23.11786 52.32095 33807 ft 442 kts 256°
2026-04-22 21:19 23.09788 52.25773 33809 ft 442 kts 256°
2026-04-22 21:19 23.07784 52.19469 33810 ft 442 kts 256°
2026-04-22 21:20 23.05765 52.13136 33809 ft 442 kts 256°
2026-04-22 21:20 23.03758 52.06848 33810 ft 442 kts 256°
2026-04-22 21:21 23.01751 52.00570 33810 ft 441 kts 256°
2026-04-22 21:21 22.99738 51.94283 33813 ft 441 kts 256°
2026-04-22 21:22 22.97723 51.87995 33813 ft 441 kts 256°
2026-04-22 21:22 22.96042 51.82758 33813 ft 441 kts 256°
2026-04-22 21:23 22.94020 51.76469 33812 ft 441 kts 256°
2026-04-22 21:23 22.91997 51.70186 33815 ft 441 kts 256°
2026-04-22 21:24 22.89977 51.63920 33815 ft 441 kts 256°
2026-04-22 21:24 22.87953 51.57654 33810 ft 441 kts 256°
2026-04-22 21:25 22.85925 51.51369 33812 ft 440 kts 256°
2026-04-22 21:25 22.84666 51.44945 33812 ft 433 kts 269°
2026-04-22 21:26 22.84744 51.38436 33815 ft 431 kts 275°
2026-04-22 21:26 22.85141 51.31984 33814 ft 431 kts 276°
2026-04-22 21:27 22.85580 51.25487 33818 ft 432 kts 276°
2026-04-22 21:27 22.85996 51.18996 33818 ft 433 kts 275°
2026-04-22 21:28 22.86394 51.12489 33818 ft 433 kts 275°
2026-04-22 21:28 22.86785 51.05983 33823 ft 433 kts 275°
2026-04-22 21:29 22.87174 50.99482 33824 ft 432 kts 275°
2026-04-22 21:29 22.87561 50.92971 33823 ft 433 kts 275°
2026-04-22 21:30 22.87948 50.86438 33831 ft 432 kts 275°
2026-04-22 21:30 22.88329 50.79942 33829 ft 432 kts 275°
2026-04-22 21:31 22.88709 50.73431 33826 ft 432 kts 275°
2026-04-22 21:31 22.89085 50.66919 33826 ft 432 kts 275°
2026-04-22 21:32 22.89459 50.60426 33826 ft 433 kts 275°
2026-04-22 21:32 22.89831 50.53902 33829 ft 432 kts 275°
2026-04-22 21:33 22.90198 50.47416 33832 ft 431 kts 275°
2026-04-22 21:33 22.90564 50.40923 33828 ft 431 kts 274°
2026-04-22 21:34 22.90927 50.34424 33829 ft 432 kts 274°
2026-04-22 21:34 22.91286 50.27948 33832 ft 433 kts 274°
2026-04-22 21:35 22.91644 50.21432 33831 ft 433 kts 274°
2026-04-22 21:35 22.92000 50.14916 33831 ft 433 kts 274°
2026-04-22 21:36 22.92354 50.08391 33831 ft 432 kts 274°
2026-04-22 21:36 22.92705 50.01871 33832 ft 433 kts 274°
2026-04-22 21:37 22.93051 49.95377 33838 ft 432 kts 274°
2026-04-22 21:37 22.93395 49.88879 33837 ft 431 kts 274°
2026-04-22 21:38 22.93736 49.82397 33837 ft 431 kts 274°
2026-04-22 21:38 22.94075 49.75900 33837 ft 431 kts 274°
2026-04-22 21:39 22.94409 49.69450 33840 ft 430 kts 274°
2026-04-22 21:39 22.94742 49.62958 33840 ft 430 kts 274°
2026-04-22 21:40 22.95072 49.56469 33840 ft 430 kts 274°
2026-04-22 21:40 22.95398 49.50011 33840 ft 429 kts 274°
2026-04-22 21:41 22.95722 49.43552 33843 ft 429 kts 274°
2026-04-22 21:41 22.96044 49.37074 33843 ft 429 kts 274°
2026-04-22 21:42 22.96360 49.30655 33843 ft 429 kts 274°
2026-04-22 21:42 22.96678 49.24166 33845 ft 428 kts 274°
2026-04-22 21:43 22.96991 49.17707 33856 ft 428 kts 274°
2026-04-22 21:43 22.97300 49.11290 33849 ft 430 kts 274°
2026-04-22 21:44 22.97609 49.04802 33846 ft 429 kts 274°
2026-04-22 21:44 22.97914 48.98339 33848 ft 429 kts 274°
2026-04-22 21:45 22.98217 48.91870 33848 ft 429 kts 274°
2026-04-22 21:45 22.98518 48.85399 33856 ft 429 kts 274°
2026-04-22 21:46 22.98814 48.78973 33854 ft 429 kts 274°
2026-04-22 21:46 22.99109 48.72519 33856 ft 429 kts 274°
2026-04-22 21:47 22.99401 48.66051 33856 ft 428 kts 274°
2026-04-22 21:47 22.99690 48.59590 33859 ft 429 kts 274°
2026-04-22 21:48 22.99979 48.53096 33859 ft 430 kts 274°
2026-04-22 21:48 23.00263 48.46641 33862 ft 430 kts 273°
2026-04-22 21:49 23.00545 48.40167 33861 ft 430 kts 274°
2026-04-22 21:49 23.00825 48.33687 33868 ft 430 kts 274°
2026-04-22 21:50 23.01104 48.27176 33867 ft 430 kts 274°
2026-04-22 21:50 23.01378 48.20698 33866 ft 430 kts 274°
2026-04-22 21:51 23.01650 48.14225 33867 ft 431 kts 274°
2026-04-22 21:52 23.02053 48.04491 33871 ft 431 kts 274°
2026-04-22 21:52 23.02318 47.98021 33872 ft 432 kts 273°
2026-04-22 21:53 23.02584 47.91473 33876 ft 435 kts 273°
2026-04-22 21:53 23.03451 47.85015 33889 ft 435 kts 287°
2026-04-22 21:53 23.04690 47.82009 33878 ft 436 kts 298°
2026-04-22 21:54 23.06513 47.79344 33875 ft 442 kts 309°
2026-04-22 21:54 23.08857 47.77184 33877 ft 452 kts 322°
2026-04-22 21:54 23.11660 47.75523 33879 ft 455 kts 323°
2026-04-22 21:55 23.16980 47.71920 33883 ft 453 kts 321°
2026-04-22 21:55 23.22269 47.68182 33905 ft 454 kts 321°
2026-04-22 21:56 23.27614 47.64490 33899 ft 455 kts 322°
2026-04-22 21:56 23.32999 47.60832 33897 ft 455 kts 322°
2026-04-22 21:57 23.38352 47.57210 33899 ft 456 kts 322°
2026-04-22 21:57 23.43738 47.53559 33912 ft 458 kts 322°
2026-04-22 21:58 23.49180 47.49868 33911 ft 460 kts 322°
2026-04-22 21:58 23.54616 47.46178 33914 ft 460 kts 322°
2026-04-22 21:59 23.60034 47.42494 33916 ft 460 kts 322°
2026-04-22 21:59 23.65474 47.38790 33922 ft 463 kts 322°
2026-04-22 22:00 23.70949 47.35059 33923 ft 466 kts 322°
2026-04-22 22:00 23.76479 47.31290 33927 ft 466 kts 322°
2026-04-22 22:01 23.81984 47.27535 33933 ft 466 kts 322°
2026-04-22 22:01 23.87446 47.23804 33930 ft 466 kts 322°
2026-04-22 22:02 23.92960 47.20033 33936 ft 465 kts 322°
2026-04-22 22:02 23.98452 47.16273 33933 ft 466 kts 322°
2026-04-22 22:03 24.03926 47.12522 33938 ft 466 kts 322°
2026-04-22 22:03 24.09410 47.08765 33937 ft 467 kts 322°
2026-04-22 22:04 24.15291 47.05592 33941 ft 473 kts 330°
2026-04-22 22:04 24.21342 47.02737 33942 ft 473 kts 330°
2026-04-22 22:05 24.27389 46.99950 33944 ft 472 kts 330°
2026-04-22 22:05 24.33451 46.97145 33948 ft 472 kts 330°
2026-04-22 22:06 24.39492 46.94333 33956 ft 473 kts 330°
2026-04-22 22:06 24.45545 46.91509 33952 ft 473 kts 330°
2026-04-22 22:07 24.51604 46.88679 33955 ft 473 kts 330°
2026-04-22 22:07 24.57658 46.85848 33967 ft 473 kts 330°
2026-04-22 22:08 24.63715 46.83014 33955 ft 471 kts 329°
2026-04-22 22:08 24.69709 46.80206 33960 ft 470 kts 329°
2026-04-22 22:09 24.75744 46.77375 33963 ft 470 kts 329°
2026-04-22 22:09 24.81753 46.74555 33965 ft 467 kts 329°
2026-04-22 22:10 24.86724 46.72220 33966 ft 466 kts 329°
2026-04-22 22:10 24.93652 46.68959 33966 ft 466 kts 329°
2026-04-22 22:11 24.99176 46.65482 33960 ft 452 kts 315°
2026-04-22 22:11 25.03180 46.61707 33960 ft 452 kts 311°
2026-04-22 22:12 25.07793 46.57019 33955 ft 452 kts 310°
2026-04-22 22:12 25.12368 46.52299 33967 ft 449 kts 310°
2026-04-22 22:13 25.16942 46.47592 33964 ft 453 kts 310°
2026-04-22 22:13 25.21585 46.42825 33963 ft 457 kts 310°
2026-04-22 22:14 25.26250 46.38048 33975 ft 457 kts 310°
2026-04-22 22:14 25.30889 46.33294 33980 ft 455 kts 310°
2026-04-22 22:15 25.35563 46.28490 33970 ft 461 kts 310°
2026-04-22 22:15 25.40269 46.23649 33966 ft 462 kts 310°
2026-04-22 22:16 25.44984 46.18797 33967 ft 462 kts 310°
2026-04-22 22:16 25.49661 46.13977 33972 ft 463 kts 311°
2026-04-22 22:17 25.54388 46.09098 33969 ft 465 kts 311°
2026-04-22 22:17 25.59111 46.04221 33969 ft 465 kts 311°
2026-04-22 22:18 25.63841 45.99336 33978 ft 465 kts 310°
2026-04-22 22:18 25.68561 45.94455 33967 ft 463 kts 310°
2026-04-22 22:19 25.73249 45.89588 33966 ft 463 kts 310°
2026-04-22 22:19 25.77957 45.84698 33965 ft 463 kts 310°
2026-04-22 22:20 25.82661 45.79810 33968 ft 463 kts 310°
2026-04-22 22:20 25.87371 45.74913 33965 ft 463 kts 310°
2026-04-22 22:21 25.92045 45.70050 33966 ft 463 kts 310°
2026-04-22 22:21 25.96747 45.65144 33969 ft 461 kts 309°
2026-04-22 22:22 26.01397 45.60291 33965 ft 457 kts 309°
2026-04-22 22:22 26.06022 45.55455 33965 ft 455 kts 309°
2026-04-22 22:23 26.10616 45.50649 33989 ft 452 kts 309°
2026-04-22 22:23 26.15174 45.45874 33957 ft 448 kts 309°
2026-04-22 22:24 26.19701 45.41131 33959 ft 448 kts 309°
2026-04-22 22:24 26.24238 45.36366 33960 ft 447 kts 309°
2026-04-22 22:25 26.28734 45.31639 33964 ft 448 kts 309°
2026-04-22 22:25 26.33306 45.26828 33957 ft 451 kts 309°
2026-04-22 22:26 26.37862 45.22053 33954 ft 451 kts 309°
2026-04-22 22:26 26.42449 45.17243 33956 ft 451 kts 309°
2026-04-22 22:27 26.47027 45.12433 33959 ft 452 kts 309°
2026-04-22 22:27 26.51584 45.07638 33954 ft 453 kts 309°
2026-04-22 22:28 26.56173 45.02803 33954 ft 453 kts 309°
2026-04-22 22:28 26.60762 44.97969 33957 ft 450 kts 308°
2026-04-22 22:29 26.65275 44.93211 33949 ft 446 kts 308°
2026-04-22 22:29 26.69775 44.88454 33947 ft 446 kts 308°
2026-04-22 22:30 26.74297 44.83668 33948 ft 446 kts 308°
2026-04-22 22:30 26.78810 44.78892 33950 ft 446 kts 308°
2026-04-22 22:31 26.83303 44.74122 33944 ft 446 kts 308°
2026-04-22 22:31 26.87813 44.69319 33946 ft 446 kts 308°
2026-04-22 22:32 26.92288 44.64553 33944 ft 445 kts 308°
2026-04-22 22:32 26.96758 44.59791 33955 ft 442 kts 307°
2026-04-22 22:33 27.01201 44.55057 33953 ft 439 kts 307°
2026-04-22 22:33 27.05621 44.50327 33930 ft 439 kts 307°
2026-04-22 22:34 27.10038 44.45585 33946 ft 439 kts 307°
2026-04-22 22:34 27.14459 44.40841 33942 ft 439 kts 307°
2026-04-22 22:35 27.18829 44.36159 33939 ft 434 kts 307°
2026-04-22 22:35 27.23204 44.31467 33941 ft 434 kts 307°
2026-04-22 22:36 27.27570 44.26776 33963 ft 434 kts 307°
2026-04-22 22:36 27.31921 44.22101 33956 ft 431 kts 306°
2026-04-22 22:37 27.36242 44.17455 33940 ft 428 kts 306°
2026-04-22 22:37 27.40516 44.12846 33941 ft 427 kts 306°
2026-04-22 22:38 27.44797 44.08225 33942 ft 427 kts 306°
2026-04-22 22:38 27.49099 44.03578 33941 ft 427 kts 306°
2026-04-22 22:39 27.53374 43.98959 33943 ft 425 kts 306°
2026-04-22 22:39 27.57622 43.94363 33941 ft 424 kts 306°
2026-04-22 22:40 27.61868 43.89760 33940 ft 423 kts 306°
2026-04-22 22:40 27.66125 43.85140 33941 ft 423 kts 306°
2026-04-22 22:41 27.70357 43.80545 33948 ft 423 kts 306°
2026-04-22 22:41 27.74581 43.75952 33944 ft 423 kts 306°
2026-04-22 22:42 27.78831 43.71326 33949 ft 423 kts 306°
2026-04-22 22:42 27.83057 43.66721 33949 ft 423 kts 306°
2026-04-22 22:43 27.87231 43.62068 33951 ft 420 kts 303°
2026-04-22 22:43 27.91215 43.57215 33952 ft 420 kts 302°
2026-04-22 22:44 27.95156 43.52358 33948 ft 420 kts 303°
2026-04-22 22:44 27.99152 43.47495 33953 ft 421 kts 303°
2026-04-22 22:45 28.03140 43.42673 33984 ft 421 kts 303°
2026-04-22 22:45 28.07150 43.37824 33959 ft 426 kts 302°
2026-04-22 22:46 28.11240 43.32868 33962 ft 430 kts 302°
2026-04-22 22:46 28.15317 43.27932 33960 ft 430 kts 302°
2026-04-22 22:47 28.19400 43.22982 33960 ft 430 kts 302°
2026-04-22 22:47 28.23490 43.18009 33966 ft 432 kts 302°
2026-04-22 22:48 28.27564 43.13052 33964 ft 432 kts 302°
2026-04-22 22:48 28.31671 43.08051 33967 ft 432 kts 302°
2026-04-22 22:49 28.35772 43.03052 33963 ft 432 kts 302°
2026-04-22 22:49 28.39876 42.98038 33966 ft 434 kts 303°
2026-04-22 22:50 28.43998 42.92996 33966 ft 435 kts 303°
2026-04-22 22:50 28.48118 42.87954 33972 ft 436 kts 303°
2026-04-22 22:51 28.52250 42.82889 33964 ft 437 kts 303°
2026-04-22 22:51 28.56370 42.77835 33968 ft 438 kts 303°
2026-04-22 22:52 28.60507 42.72753 33970 ft 438 kts 303°
2026-04-22 22:52 28.64647 42.67661 33975 ft 438 kts 303°
2026-04-22 22:53 28.68785 42.62570 33970 ft 438 kts 303°
2026-04-22 22:53 28.72898 42.57491 33964 ft 439 kts 303°
2026-04-22 22:54 28.77040 42.52370 33966 ft 439 kts 303°
2026-04-22 22:54 28.81191 42.47237 33966 ft 439 kts 303°
2026-04-22 22:55 28.85341 42.42101 33967 ft 439 kts 303°
2026-04-22 22:55 28.91544 42.34411 33973 ft 443 kts 304°
2026-04-22 22:56 28.95725 42.29219 33976 ft 443 kts 304°
2026-04-22 22:56 28.99903 42.24023 33977 ft 443 kts 304°
2026-04-22 22:57 29.04078 42.18826 33982 ft 444 kts 304°
2026-04-22 22:57 29.08261 42.13616 33980 ft 446 kts 304°
2026-04-22 22:58 29.12448 42.08384 33980 ft 446 kts 304°
2026-04-22 22:58 29.16617 42.03168 33980 ft 446 kts 304°
2026-04-22 22:59 29.20099 41.98808 33981 ft 446 kts 304°
2026-04-22 22:59 29.24300 41.93538 33982 ft 449 kts 304°
2026-04-22 23:00 29.28504 41.88261 33987 ft 450 kts 304°
2026-04-22 23:00 29.32735 41.82951 33992 ft 450 kts 304°
2026-04-22 23:01 29.36953 41.77644 33988 ft 450 kts 304°
2026-04-22 23:01 29.41131 41.72381 33987 ft 447 kts 304°
2026-04-22 23:02 29.45318 41.67099 33989 ft 447 kts 304°
2026-04-22 23:02 29.49502 41.61811 33988 ft 446 kts 304°
2026-04-22 23:03 29.53656 41.56555 33987 ft 446 kts 304°
2026-04-22 23:03 29.57825 41.51276 33990 ft 445 kts 304°
2026-04-22 23:04 29.61982 41.46004 33990 ft 445 kts 304°
2026-04-22 23:04 29.66111 41.40758 33996 ft 445 kts 304°
2026-04-22 23:05 29.70270 41.35468 33995 ft 445 kts 304°
2026-04-22 23:05 29.74542 41.30287 33998 ft 450 kts 309°
2026-04-22 23:06 29.79154 41.25444 34001 ft 451 kts 309°
2026-04-22 23:06 29.83846 41.20633 33998 ft 452 kts 310°
2026-04-22 23:07 29.88542 41.15828 33999 ft 451 kts 310°
2026-04-22 23:07 29.93234 41.11009 34003 ft 452 kts 310°
2026-04-22 23:08 29.97928 41.06172 34001 ft 453 kts 310°
2026-04-22 23:08 30.02630 41.01321 33998 ft 453 kts 310°
2026-04-22 23:09 30.07331 40.96465 34010 ft 453 kts 310°
2026-04-22 23:09 30.12005 40.91628 34001 ft 455 kts 310°
2026-04-22 23:10 30.16723 40.86742 34007 ft 455 kts 310°
2026-04-22 23:10 30.21442 40.81849 34003 ft 455 kts 310°
2026-04-22 23:11 30.26159 40.76952 34004 ft 455 kts 310°
2026-04-22 23:11 30.30872 40.72051 34007 ft 455 kts 310°
2026-04-22 23:12 30.35582 40.67146 34007 ft 455 kts 310°
2026-04-22 23:12 30.40259 40.62267 34010 ft 455 kts 310°
2026-04-22 23:13 30.45005 40.57396 34007 ft 456 kts 311°
2026-04-22 23:13 30.49769 40.52537 34360 ft 453 kts 311°
2026-04-22 23:14 30.52124 40.50133 34664 ft 450 kts 311°
2026-04-22 23:14 30.54469 40.47733 34889 ft 448 kts 311°
2026-04-22 23:14 30.56803 40.45337 35153 ft 446 kts 311°
2026-04-22 23:14 30.59099 40.42977 35365 ft 445 kts 311°
2026-04-22 23:15 30.61417 40.40592 35511 ft 445 kts 311°
2026-04-22 23:15 30.63740 40.38198 35649 ft 446 kts 311°
2026-04-22 23:15 30.66059 40.35809 35803 ft 446 kts 311°
2026-04-22 23:15 30.68378 40.33418 35961 ft 446 kts 311°
2026-04-22 23:16 30.73038 40.28606 36012 ft 451 kts 311°
2026-04-22 23:16 30.77746 40.23741 36047 ft 452 kts 311°
2026-04-22 23:17 30.82403 40.18933 36012 ft 450 kts 311°
2026-04-22 23:17 30.87082 40.14093 36006 ft 449 kts 311°
2026-04-22 23:18 30.91752 40.09250 36011 ft 449 kts 311°
2026-04-22 23:18 30.96422 40.04400 36009 ft 449 kts 311°
2026-04-22 23:19 31.01084 39.99551 36008 ft 449 kts 311°
2026-04-22 23:19 31.05745 39.94696 36006 ft 449 kts 311°
2026-04-22 23:20 31.10401 39.89841 35999 ft 449 kts 311°
2026-04-22 23:20 31.15025 39.85005 36004 ft 450 kts 311°
2026-04-22 23:21 31.19710 39.80109 36013 ft 452 kts 312°
2026-04-22 23:21 31.24396 39.75211 36005 ft 451 kts 312°
2026-04-22 23:22 31.29071 39.70313 36001 ft 451 kts 312°
2026-04-22 23:22 31.33742 39.65408 36001 ft 451 kts 312°
2026-04-22 23:23 31.38409 39.60501 36001 ft 451 kts 312°
2026-04-22 23:23 31.43049 39.55614 36006 ft 451 kts 312°